Regional Weather Roundup
Issued by NWS

Home | Current Version | Previous Version | Graphics & Text | Print | Product List | Glossary On
Versions: 1 2 3 4 5 6 7 8 9 10 11 12 13 14 15 16 17 18 19 20 21 22 23 24 25 26 27 28 29 30 31 32 33 34 35 36 37 38 39 40 41 42 43 44 45 46 47 48 49 50
000
ASUS43 KLOT 290904
RWRIL

ILLINOIS REGIONAL WEATHER ROUNDUP
NATIONAL WEATHER SERVICE CHICAGO/ROMEOVILLE IL
400 AM CDT MON MAY 29 2017

NOTE: "FAIR" INDICATES FEW OR NO CLOUDS BELOW 12,000 FEET WITH NO
SIGNIFICANT WEATHER AND/OR OBSTRUCTIONS TO VISIBILITY.

* THESE STATIONS ARE NOT UNDER NWS QUALITY CONTROL. THEY ALSO MAY NOT
  REPORT WEATHER SUCH AS PRECIPITATION OR FOG.

ILZ001-002-007-009-015-016-024-291000-
NORTHWEST ILLINOIS

CITY           SKY/WX    TMP DP  RH WIND       PRES   REMARKS
MOLINE         MOCLDY    58  48  69 SW6       29.82R
STERLING*      CLEAR     57  52  83 SW5       29.82R
SAVANNA*       MOCLDY    61  48  62 SW3       29.81R
$$

ILZ003-004-008-010-011-017-018-291000-
NORTH CENTRAL ILLINOIS

CITY           SKY/WX    TMP DP  RH WIND       PRES   REMARKS
ROCKFORD       CLOUDY    57  51  80 SW6       29.79R
FREEPORT*      PTCLDY    56  47  72 SW7       29.81R
ROCHELLE*      CLEAR     55  52  90 SW7       29.80S
DE KALB*       CLEAR     60  51  73 SW9       29.80R
$$

ILZ005-006-012>014-019>023-291000-
NORTHEAST ILLINOIS

CITY           SKY/WX    TMP DP  RH WIND       PRES   REMARKS
CHICAGO-OHARE  PTCLDY    61  50  67 SW7       29.76R
CHICAGO-MIDWAY PTCLDY    64  51  62 SW8       29.78R
AURORA         CLEAR     59  52  77 SW8       29.79R
LANSING*       CLOUDY    61  53  75 W3        29.78F
JOLIET*        PTCLDY    62  54  75 SW5       29.79S
WAUKEGAN       CLEAR     57  48  72 SW6       29.75R
DUPAGE AIRPORT CLEAR     58  53  84 SW9       29.78R
WHEELING       CLEAR     55  51  86 S5        29.77R
MORRIS*        PTCLDY    58  51  76 CALM      29.79R
ROMEOVILLE*    PTCLDY    60  54  80 SW8       29.79R
NORTHERLY ISL    N/A     64  49  57 SW6         N/A
$$

LMZ740>746-291000-
SOUTHERN LAKE MICHIGAN

STATION/POSITION SKY/WX   TEMP    WIND        PRES    VSBY  WAVE
                          AIR SEA DIR/SP/G                  HT/PER
                          (F)     (DEG/KT/KT) (MB)    (MI)  (FT/S)
SOUTHERN BUOY              53 47  250/ 10/ 10 1007.4          1
WILMETTE HARBOR            58 55  210/  6/  8   N/A           0
HARRISON CRIB              69     230/  8/  9   N/A
BURNHAM HARBOR             64     220/  4/  7   N/A
CALUMET HARBOR             64     200/  6/  8 1007.9R
BURNS HARBOR               62     200/ 11/ 13 1009.1R
MICHIGAN CITY              62     190/  8/  9   N/A
MICHIGAN CITY 6N           59 57  210/  6/  8   N/A           1
ST. JOSEPH                 60 59  200/  4/  6 1008.1R         1
$$

ILZ025>027-034>036-040-047-049-050-058-095>099-291000-
WEST-CENTRAL ILLINOIS

CITY           SKY/WX    TMP DP  RH WIND       PRES   REMARKS
QUINCY         PTCLDY    60  51  72 SW6       29.88S
GALESBURG*     CLEAR     59  49  70 SW7       29.84F
MACOMB*        CLEAR     56  51  81 SW8       29.88S
JACKSONVILLE*  CLEAR     60  55  83 SW5       29.87F
PITTSFIELD*    PTCLDY    63  53  71 W3        29.90R
$$

ILZ028>032-037-038-041>044-048-051>054-059>061-291000-
CENTRAL ILLINOIS

CITY           SKY/WX    TMP DP  RH WIND       PRES   REMARKS
PONTIAC        CLEAR     61  54  77 W9        29.82S
BLOOMINGTON    CLEAR     62  52  69 SW10      29.85R
DECATUR        PTCLDY    63  55  75 SW9       29.86S
PEORIA         PTCLDY    60  50  69 W5        29.84S
LACON*         CLEAR     60  50  70 CALM      29.82S
LINCOLN*       CLEAR     65  55  68 SW5       29.85S
SPRINGFIELD    CLEAR     64  57  78 W10       29.87R
TAYLORVILLE    NOT AVBL
$$

ILZ033-039-045-046-055>057-062-063-291000-
EAST-CENTRAL ILLINOIS

CITY           SKY/WX    TMP DP  RH WIND       PRES   REMARKS
CHAMPAIGN      PTCLDY    61  54  77 SW13      29.85R
RANTOUL*       CLEAR     62  56  83 SW7       29.84R
MATTOON        CLEAR     63  56  78 SW8       29.86S
PARIS*         CLEAR     61  55  81 SW10      29.87R
$$

ILZ079-100>102-291000-
SOUTHWEST ILLINOIS

CITY           SKY/WX    TMP DP  RH WIND       PRES   REMARKS
BELLEVILLE     CLEAR     62  56  82 SW6       29.91S
CAHOKIA*       CLEAR     64  55  72 CALM      29.90S
SPARTA*        CLOUDY    63  56  79 SW6       29.94R
$$

ILZ064>066-069>071-074>076-080>082-084>086-088>090-092>094-291000-
SOUTH-CENTRAL ILLINOIS

CITY           SKY/WX    TMP DP  RH WIND       PRES   REMARKS
CARBONDALE     CLOUDY    60  58  92 SW7       29.92S
CAIRO*         CLOUDY    63  63  98 CALM      29.94S
EFFINGHAM*     CLOUDY    60  58  92 SW3       29.90S
MARION         MOCLDY    61  61 100 SW3       29.94S
MT. VERNON       N/A     59  58  96 SW3       29.92R
CENTRALIA*     CLOUDY    63  58  84 SW7       29.91R
SALEM*         PTCLDY    63  57  82 SW7       29.90S
$$

ILZ067-068-072-073-078-083-087-091-291000-
SOUTHEAST ILLINOIS

CITY           SKY/WX    TMP DP  RH WIND       PRES   REMARKS
LAWRENCEVILLE  CLEAR     59  57  93 S6        29.89R
FLORA*         CLOUDY    65  57  75 W9        29.90R
FAIRFIELD*     PTCLDY    58  58 100 CALM      29.90R
HARRISBURG*    MOCLDY    60  60  99 CALM      29.93S
ROBINSON*      PTCLDY    63  56  76 SW9       29.89R
CARMI*         CLOUDY    60  60  99 CALM      29.91S
$$

ABBREVIATIONS USED IN REMARKS
   TC - TEMPERATURE IN CELSIUS
  WCI - WIND CHILL INDEX
   HX - HEAT INDEX
  VSB - VISIBILITY
$$





USA.gov is the U.S. government's official web portal to all federal, state and local government web resources and services.